User: anonymous   Login
Location: Riverside
(39.1734°N, 77.8561°W)
Time: 08:26:18
(UTC+00:00)
Language:

DELFI C3 - Orbit

View from above orbital plane
View from above orbital plane
View from above satellite
View from above satellite

Ground track
Ground track

The orbit data is extracted from the following two-line orbital elements,

1 32789U 08021G   19320.66665100 +.00001377 +00000-0 +95251-4 0  9999
2 32789 097.4474 005.6562 0011216 335.1825 024.8862 15.07258448629605
Epoch (UTC): 16 November 2019 15:59:58
Eccentricity: 0.0011216
inclination: 97.4474°
perigee height: 537 km
apogee height: 552 km
right ascension of ascending node: 5.6562°
argument of perigee: 335.1825°
revolutions per day: 15.07258448
mean anomaly at epoch: 24.8862°
orbit number at epoch: 62960

The dashed part of the orbit path shows where the satellite is in the earth's shadow,  

DLR